Regional Weather Roundup
Issued by NWS

Home | Current Version | Previous Version | Text Only | Print | Product List | Glossary On
Versions: 1 2 3 4 5 6 7 8 9 10 11 12 13 14 15 16 17 18 19 20 21 22 23 24 25 26 27 28 29 30 31 32 33 34 35 36 37 38 39 40 41 42 43 44 45 46 47 48 49 50
000
ASUS45 KBOU 202110
RWRCO

WEATHER ROUNDUP FOR COLORADO
NATIONAL WEATHER SERVICE DENVER/BOULDER CO
200 PM MST SAT JAN 20 2018

NOTE: "FAIR" INDICATES FEW OR NO CLOUDS BELOW 12000 FEET WITH NO
SIGNIFICANT WEATHER AND/OR OBSTRUCTIONS TO VISIBILITY.

COZ001>005-013-030-031-202200-
...NORTHWEST COLORADO...

CITY           SKY/WX    TMP DP  RH WIND       PRES   REMARKS
CRAIG          CLOUDY    35  30  82 CALM      29.71F
HAYDEN         CLOUDY   N/A N/A N/A W7        29.71F
MEEKER         CLOUDY    43  32  65 SW15      29.69F
RABBIT EARS PA NOT AVBL
STEAMBOAT SPGS NOT AVBL
WALDEN         NOT AVBL
$$

COZ006>008-011-202200-
...WEST CENTRAL VALLEYS...

CITY           SKY/WX    TMP DP  RH WIND       PRES   REMARKS
GRAND JUNCTION PTSUNNY   50  33  52 N7        29.68F
MONTROSE       CLOUDY    53  25  33 S13       29.71F
EAGLE          FAIR      49  26  41 W13       29.69F
RIFLE          LGT RAIN  39  35  86 N5        29.70F
DELTA          PTSUNNY   53  31  42 SW17G23   29.72S
NUCLA          NOT AVBL
$$

COZ017>023-064>068-202200-
...SOUTHWEST COLORADO...

CITY           SKY/WX    TMP DP  RH WIND       PRES   REMARKS
DURANGO        CLOUDY    47  18  31 E9        29.80F
CORTEZ         LGT RAIN  45  32  60 S17G28    29.78S
PAGOSA SPRINGS CLOUDY    43  14  30 CALM      29.87F
TELLURIDE      LGT SNOW  35  23  62 S28G35    29.80F WCI  22
WOLF CREEK PAS NOT AVBL
$$

COZ009-010-012-014-032>034-037-058>063-202200-
...CENTRAL COLORADO...

CITY           SKY/WX    TMP DP  RH WIND       PRES   REMARKS
ASPEN          CLOUDY    45  23  42 SE17G26   29.69F
BUENA VISTA    FAIR      49  16  26 S8        29.75F
COPPER MTN     NOT AVBL
BERTHOUD PASS  NOT AVBL
COTTONWOOD PAS NOT AVBL
GUNNISON       FAIR      45  20  36 S16G22    29.77F
KREMMLING      NOT AVBL
LEADVILLE      FAIR      36  18  48 S14       29.78F
SALIDA         CLOUDY    55  15  21 S10G23    29.83S
SUNLIGHT       NOT AVBL
WILKERSON PASS NOT AVBL
$$

COZ069>075-202200-
...SAN LUIS VALLEY/SANGRE DE CRISTO MOUNTAINS...

CITY           SKY/WX    TMP DP  RH WIND       PRES   REMARKS
ALAMOSA        FAIR      51  15  23 SW22      29.83F
DEL NORTE      NOT AVBL
LA VETA PASS   NOT AVBL
SAGUACHE       NOT AVBL
$$

COZ035-036-038>040-202200-
...NORTHERN COLORADO FRONT RANGE...

CITY           SKY/WX    TMP DP  RH WIND       PRES   REMARKS
DENVER INTL AP PTSUNNY   46  25  43 N13       29.73F
DMNS CITY PARK NOT AVBL
AURORA         PTSUNNY   46  23  40 NE8       29.74R
FRONT RANGE AP PTSUNNY   46  27  46 N13G18    29.74F
ERIE MUNI ARPT NOT AVBL
BOULDER MUN AP NOT AVBL
CENTENNIAL     FAIR      46  23  40 N12G18    29.73S
BROOMFIELD     PTSUNNY   45  25  45 N9        29.75F
FORT COLLINS   FAIR      45  28  51 E13G18    29.76F
LONGMONT       FAIR      47  28  46 NE10      29.76F
$$

COZ041-046-047-076>085-087-088-202200-
...PIKES PEAK/PALMER DIVIDE AND SOUTHERN FOOTHILLS...

CITY           SKY/WX    TMP DP  RH WIND       PRES   REMARKS
COLO. SPRINGS  PTSUNNY   61  19  19 SW13      29.71F
A. F. ACADEMY  PTSUNNY   60  16  18 S9        29.70F
SCHRIEVER AFB  FAIR      57  16  20 S13       29.72F
CHEYENNE MTN   FAIR      55  14  19 SE12G31   29.66F
ELLICOTT         N/A    N/A N/A N/A SW15      29.71F
FALCON         FAIR      55  15  20 S13G20    29.74F
FORT CARSON    FAIR      61  18  19 SW15      29.67F
LIMON          FAIR      58  20  22 NE14G21   29.69S
MONUMENT HILL  NOT AVBL
CANON CITY     SUNNY     68  21  17 W18       29.68F
WALSENBURG     NOT AVBL
TRINIDAD       FAIR      69  17  13 S10       29.69F
$$

COZ042>045-048>051-090-091-202200-
...NORTHEAST COLORADO...

CITY           SKY/WX    TMP DP  RH WIND       PRES   REMARKS
GREELEY ARPT   FAIR      42  29  59 N18       29.76S
AKRON          FAIR      42  29  59 NE13      29.73S
BURLINGTON     FAIR      50  29  44 NE9G20    29.71F
WRAY           FAIR      48  28  46 NE14      29.73F
YUMA           NOT AVBL
STERLING       NOT AVBL
HOLYOKE        NOT AVBL
FORT MORGAN    FAIR      41  27  57 NE12      29.76R
$$

COZ086-089-092>099-202200-
...SOUTHEAST COLORADO...

CITY           SKY/WX    TMP DP  RH WIND       PRES   REMARKS
PUEBLO         FAIR      68  19  15 VRB5G20   29.65F
LA JUNTA       FAIR      73  19  13 W20G28    29.64F
LAMAR          FAIR      73  23  15 SW7       29.64F
SPRINGFIELD      N/A     72  20  14 S14       29.67F
$$



USA.gov is the U.S. government's official web portal to all federal, state and local government web resources and services.